Weather in Miynala

Russia / Republic of Karelia     61°33′05″N   30°19′03″E
temp.,
°C
wind,
m/s
gust,
m/s
humid.,
%
clouds,
%
prec.,
mm/h
press.,
hPa
HPBL,
m
25 july, sun
sun2500:00+16sw4961100 0.0 1014256
03:00+15wsw376832 0.0 1014175
06:00+13w24784 0.0 1015106
09:00+19nw35485 0.0 1015686
12:00+22wnw244448 0.0 10161377
15:00+23wnw354562 0.0 10161386
18:00+21wsw1357100 0.0 1017223
21:00+18ne017175 0.0 101711
26 july, mon
mon2600:00+18wsw246875 0.0 101868
03:00+17wsw367085 0.0 1018137
06:00+16w26835 0.1 1019132
09:00+21nnw235752 0.1 1019420
12:00+25e12449 0.0 10201266
15:00+26ese13415 0.0 10191597
18:00+25s13405 0.0 10191705
21:00+21ssw226096 0.0 101915
27 july, tue
tue2700:00+18wnw226553 0.0 102014
03:00+17ene117334 0.1 102011
06:00+16ssw11798 0.2 102016
09:00+21e21618 0.3 1020333
12:00+23ese335224 0.0 1019917
15:00+23ese33547 0.0 1018468
18:00+21sse23645 0.4 1017138
21:00+19s11688 0.6 101611
28 july, wed
wed2800:00+16se23825 0.0 101651
03:00+16se11770 0.0 101512
06:00+16e238619 0.0 101456
09:00+19ese237388 0.0 1012165
12:00+19ese237282 0.0 1011152
15:00+22ese345635 0.0 1009298
18:00+22se24535 0.0 1007215
21:00+18e116731 0.0 100511
29 july, thu
thu2900:00+17sse2272100 0.0 100513
03:00+16wnw1182100 0.3 100311
06:00+17s2593100 0.9 1001107
09:00+18sw489473 4.3 1000351
12:00+20ssw6118562 1.7 999743
15:00+20sw51184100 3.6 997722
18:00+22sw7136698 0.3 996994
21:00+18wsw7148141 0.4 997894